Location: Bédeille
(43.0872°N, 1.1041°E)
Time: 01:41:42
(UTC+00:00)

S3M - Pass Details

Date: 03 February 2023
Orbit: 948 x 1005 km, 83.0° (Epoch: 27 March)

Event Time Altitude Azimuth Distance (km) Brightness Sun altitude
Rises 18:26:57 0° 162° (SSE) 3,715 7.0 -14.3°
Reaches altitude 10° 18:29:36 10° 155° (SSE) 2,771 6.2 -14.8°
Maximum altitude 18:35:28 40° 89° (E) 1,440 4.4 -15.8°
Drops below altitude 10° 18:41:21 10° 22° (NNE) 2,781 6.1 -16.9°
Sets 18:44:01 0° 15° (NNE) 3,730 6.8 -17.4°
